Weather History for Denver, CO

Change the Weather History Date:

Saturday, January 14, 2012

  Actual Average (KDEN) Record (KDEN)
Temperature  
Mean Temperature 37 °F 31 °F  
Max Temperature 53 °F 44 °F 65 °F (1938)
Min Temperature 21 °F 18 °F -18 °F (1888)
Degree Days  
Heating Degree Days 28 34  
Month to date heating degree days 481  
Since 1 July heating degree days 2949  
Cooling Degree Days 0 0  
Month to date cooling degree days 0  
Year to date cooling degree days 0  
Moisture  
Dew Point 14 °F    
Average Humidity 41    
Maximum Humidity 65    
Minimum Humidity 24    
Precipitation  
Precipitation 0.00 in 0.01 in 0.36 in (1960)
Month to date precipitation 0.18  
Year to date precipitation 0.18  
Snow  
Snow 0.00 in - - ()
Month to date snowfall  
Since 1 July snowfall  
Snow Depth -    
Sea Level Pressure  
Sea Level Pressure 30.09 in    
Wind  
Wind Speed 9 mph (SSW)    
Max Wind Speed 15 mph    
Max Gust Speed 20 mph    
Visibility 10 miles    
Events      
T = Trace of Precipitation, MM = Missing Value Source: NWS Daily Summary

Daily Weather History Graph

Daily Weather History Graph

Search for Another Location

Airport:

Trip Planner

Search our weather history database for the weather conditions in past years. The results will help you decide how hot, cold, wet, or windy it might be!

Date:

Astronomy

Jan. 14, 2012 Rise Set
Actual Time 7:18 AM MST 4:56 PM MST
Civil Twilight 6:48 AM MST 5:26 PM MST
Nautical Twilight 6:15 AM MST 5:59 PM MST
Astronomical Twilight 5:42 AM MST 6:31 PM MST
Moon 11:19 PM MST (1/14) 10:05 AM MST (1/14)
Length of Visible Light 10h 37m
Length of Day
9h 38m
Waning Gibbous, 68% of the Moon is Illuminated
Jan 14
Waning Gibbous
Jan 16
Last Quarter
Jan 23
New
Jan 30
First Quarter
Feb 7
Full

Hourly Weather History & Observations

Time (MST) Temp. Windchill Dew Point Humidity Pressure Visibility Wind Dir Wind Speed Gust Speed Precip Events Conditions
12:01 AM 30.2 °F 19.8 °F 8.6 °F 40% 30.10 in 10.0 mi WSW 13.8 mph - N/A   Clear
12:20 AM 30.2 °F 20.8 °F 5.0 °F 34% 30.10 in 10.0 mi West 11.5 mph - N/A   Clear
12:41 AM 30.2 °F 21.3 °F 5.0 °F 34% 30.10 in 10.0 mi West 10.4 mph - N/A   Clear
1:01 AM 32.0 °F 23.6 °F 3.2 °F 30% 30.10 in 10.0 mi West 10.4 mph - N/A   Clear
1:21 AM 33.8 °F 25.8 °F 3.2 °F 28% 30.10 in 10.0 mi West 10.4 mph - N/A   Clear
1:41 AM 32.0 °F 24.8 °F 3.2 °F 30% 30.10 in 10.0 mi WSW 8.1 mph - N/A   Clear
2:01 AM 32.0 °F 24.8 °F 3.2 °F 30% 30.10 in 10.0 mi WSW 8.1 mph - N/A   Clear
2:20 AM 32.0 °F 24.2 °F 5.0 °F 32% 30.11 in 10.0 mi SW 9.2 mph - N/A   Clear
2:41 AM 32.0 °F 23.6 °F 5.0 °F 32% 30.12 in 10.0 mi SW 10.4 mph - N/A   Clear
3:01 AM 32.0 °F 24.8 °F 5.0 °F 32% 30.12 in 10.0 mi SSW 8.1 mph - N/A   Clear
3:21 AM 26.6 °F 18.2 °F 8.6 °F 47% 30.10 in 10.0 mi SSW 8.1 mph - N/A   Clear
3:41 AM 23.0 °F 13.1 °F 10.4 °F 59% 30.11 in 10.0 mi SSW 9.2 mph - N/A   Clear
4:01 AM 21.2 °F 14.9 °F 10.4 °F 63% 30.11 in 10.0 mi SSW 4.6 mph - N/A   Clear
4:21 AM 21.2 °F 12.6 °F 10.4 °F 63% 30.11 in 10.0 mi ESE 6.9 mph - N/A   Clear
4:40 AM 21.2 °F 12.6 °F 10.4 °F 63% 30.11 in 10.0 mi SSE 6.9 mph - N/A   Clear
5:01 AM 21.2 °F 16.4 °F 10.4 °F 63% 30.13 in 10.0 mi South 3.5 mph - N/A   Clear
5:21 AM 23.0 °F 13.1 °F 10.4 °F 59% 30.12 in 10.0 mi SSE 9.2 mph - N/A   Clear
5:41 AM 23.0 °F 13.9 °F 10.4 °F 59% 30.12 in 10.0 mi SSE 8.1 mph - N/A   Clear
6:01 AM 23.0 °F 14.7 °F 10.4 °F 59% 30.12 in 10.0 mi South 6.9 mph - N/A   Clear
6:21 AM 23.0 °F 13.9 °F 12.2 °F 63% 30.12 in 10.0 mi SSE 8.1 mph - N/A   Clear
6:41 AM 24.8 °F 16.9 °F 12.2 °F 59% 30.11 in 10.0 mi South 6.9 mph - N/A   Clear
7:00 AM 23.0 °F 13.9 °F 12.2 °F 63% 30.11 in 10.0 mi South 8.1 mph - N/A   Clear
7:21 AM 24.8 °F 16.1 °F 12.2 °F 59% 30.11 in 10.0 mi South 8.1 mph - N/A   Clear
7:41 AM 32.0 °F 24.8 °F 10.4 °F 41% 30.13 in 10.0 mi SW 8.1 mph - N/A   Clear
8:01 AM 32.0 °F 25.6 °F 10.4 °F 41% 30.13 in 10.0 mi SW 6.9 mph - N/A   Clear
8:21 AM 33.8 °F 26.4 °F 12.2 °F 41% 30.13 in 10.0 mi SW 9.2 mph - N/A   Clear
8:40 AM 33.8 °F 27.7 °F 12.2 °F 41% 30.14 in 10.0 mi SW 6.9 mph - N/A   Clear
9:01 AM 35.6 °F 29.2 °F 14.0 °F 41% 30.14 in 10.0 mi SW 8.1 mph - N/A   Clear
9:21 AM 39.2 °F 33.0 °F 14.0 °F 36% 30.14 in 10.0 mi SW 9.2 mph - N/A   Clear
9:41 AM 41.0 °F 35.8 °F 15.8 °F 36% 30.14 in 10.0 mi SW 8.1 mph - N/A   Clear
10:01 AM 42.8 °F 38.6 °F 17.6 °F 36% 30.14 in 10.0 mi WSW 6.9 mph - N/A   Clear
10:21 AM 42.8 °F 37.5 °F 17.6 °F 36% 30.14 in 10.0 mi WSW 9.2 mph - N/A   Clear
10:41 AM 44.6 °F 39.2 °F 19.4 °F 37% 30.14 in 10.0 mi SSW 10.4 mph - N/A   Clear
11:00 AM 44.6 °F 40.2 °F 19.4 °F 37% 30.13 in 10.0 mi SSW 8.1 mph - N/A   Clear
11:21 AM 46.4 °F 44.3 °F 19.4 °F 34% 30.12 in 10.0 mi SSW 4.6 mph - N/A   Clear
11:41 AM 48.2 °F - 21.2 °F 34% 30.11 in 10.0 mi SW 5.8 mph - N/A   Clear
11:50 AM 48.2 °F - 19.4 °F 32% 30.10 in 50.0 mi SW 8.1 mph - N/A   Scattered Clouds
12:01 PM 46.4 °F 42.9 °F 19.4 °F 34% 30.10 in 10.0 mi WSW 6.9 mph - N/A   Clear
12:21 PM 50.0 °F - 21.2 °F 32% 30.08 in 10.0 mi WSW 6.9 mph - N/A   Clear
12:41 PM 50.0 °F - 17.6 °F 28% 30.07 in 10.0 mi West 15.0 mph 19.6 mph N/A   Clear
12:50 PM 50.0 °F - 15.8 °F 26% 30.06 in 50.0 mi West 10.4 mph - N/A   Scattered Clouds
1:01 PM 50.0 °F - 17.6 °F 28% 30.06 in 10.0 mi West 13.8 mph 19.6 mph N/A   Clear
1:21 PM 51.8 °F - 19.4 °F 28% 30.05 in 10.0 mi West 12.7 mph 18.4 mph N/A   Clear
1:41 PM 53.6 °F - 21.2 °F 28% 30.04 in 10.0 mi WSW 9.2 mph 16.1 mph N/A   Clear
2:00 PM 53.6 °F - 21.2 °F 28% 30.03 in 10.0 mi SSW 4.6 mph - N/A   Clear
2:21 PM 53.6 °F - 19.4 °F 26% 30.03 in 10.0 mi SSW 10.4 mph - N/A   Clear
2:41 PM 53.6 °F - 19.4 °F 26% 30.02 in 10.0 mi SSW 6.9 mph - N/A   Clear
3:01 PM 53.6 °F - 17.6 °F 24% 30.02 in 10.0 mi SSW 6.9 mph - N/A   Clear
3:21 PM 51.8 °F - 19.4 °F 28% 30.02 in 10.0 mi SSE 4.6 mph - N/A   Clear
3:41 PM 46.4 °F 42.9 °F 26.6 °F 46% 30.01 in 10.0 mi SSE 6.9 mph - N/A   Clear
4:01 PM 46.4 °F 42.4 °F 26.6 °F 46% 30.00 in 10.0 mi SSE 8.1 mph - N/A   Clear
4:21 PM 44.6 °F 39.7 °F 26.6 °F 49% 30.00 in 10.0 mi SSE 9.2 mph - N/A   Clear
4:40 PM 42.8 °F 37.5 °F 26.6 °F 53% 29.99 in 10.0 mi SE 9.2 mph - N/A   Clear
5:01 PM 37.4 °F 30.8 °F 26.6 °F 65% 29.98 in 10.0 mi SSE 9.2 mph - N/A   Clear
5:21 PM 37.4 °F 30.8 °F 24.8 °F 60% 29.98 in 10.0 mi South 9.2 mph - N/A   Clear
5:41 PM 37.4 °F 30.8 °F 26.6 °F 65% 29.97 in 10.0 mi South 9.2 mph - N/A   Clear
6:01 PM 39.2 °F 30.5 °F 24.8 °F 56% 29.96 in 10.0 mi SSW 16.1 mph - N/A   Clear
6:20 PM 41.0 °F 33.9 °F 23.0 °F 49% 29.96 in 10.0 mi SSW 12.7 mph - N/A   Clear
7:01 PM 37.4 °F 28.2 °F 23.0 °F 56% 29.95 in 10.0 mi SSW 16.1 mph - N/A   Clear
7:21 PM 42.8 °F 35.4 °F 21.2 °F 42% 29.95 in 10.0 mi SSW 15.0 mph - N/A   Clear
7:41 PM 42.8 °F 34.5 °F 19.4 °F 39% 29.95 in 10.0 mi SSW 18.4 mph 23.0 mph N/A   Clear
8:00 PM 42.8 °F 34.5 °F 17.6 °F 36% 29.95 in 10.0 mi SSW 18.4 mph - N/A   Clear
8:21 PM 41.0 °F 34.7 °F 19.4 °F 42% 29.96 in 10.0 mi South 10.4 mph - N/A   Clear
8:40 PM 37.4 °F 31.4 °F 21.2 °F 52% 29.96 in 10.0 mi South 8.1 mph - N/A   Clear
9:01 PM 42.8 °F 34.5 °F 17.6 °F 36% 29.95 in 10.0 mi SSW 18.4 mph - N/A   Clear
9:21 PM 41.0 °F 32.8 °F 17.6 °F 39% 29.94 in 10.0 mi SSW 16.1 mph - N/A   Clear
9:40 PM 41.0 °F 32.8 °F 17.6 °F 39% 29.95 in 10.0 mi SSW 16.1 mph - N/A   Clear
10:01 PM 41.0 °F 33.1 °F 17.6 °F 39% 29.95 in 10.0 mi SSW 15.0 mph - N/A   Clear
10:41 PM 41.0 °F 33.5 °F 15.8 °F 36% 29.95 in 10.0 mi SSW 13.8 mph - N/A   Clear
11:21 PM 41.0 °F 33.5 °F 15.8 °F 36% 29.94 in 10.0 mi SSW 13.8 mph - N/A   Clear
11:41 PM 41.0 °F 33.5 °F 15.8 °F 36% 29.93 in 10.0 mi SSW 13.8 mph - N/A   Clear